{"data":{"norad_id":67780,"epoch":"2026-09-20T04:18:41.070528Z","epoch_age_seconds":114107,"freshness":"FRESH","line1":"1 67780U 26030S   26263.17964202  .00001457  00000+0  22014-3 0  9997","line2":"2 67780  51.8988  65.5481 0000652 133.1703 226.9314 14.79927846 34088","mean_motion":14.79927846,"eccentricity":6.52e-5,"inclination_deg":51.8988,"raan_deg":65.5481,"arg_perigee_deg":133.1703,"mean_anomaly_deg":226.9314,"bstar":0.00022014,"rev_number":3408,"period_min":97.302041034776,"perigee_km":629.09499780683,"apogee_km":630.00880043927,"semimajor_km":7007.688899123,"source":"CELESTRAK","updated_at":"2026-09-21T09:00:16.852768Z"}}